[[{"header":{"parameterUnit":"m.s-1","parameterCategory":1,"la1":30.2991,"la2":30.254,"lo1":-89.0895,"lo2":-89.0444,"dy":0.0017,"dx":0.0017,"nx":28,"ny":28,"refTime":"2025-03-09T21:00:00:Z","depth":0,"parameterNumber":2,"parameterNumberName":"U-component_of_WINDS"},"data":[0,0,0,0,0,0,0,0,0,0,0,0,0,0,0,0,0,0,0,0,0,0,0,0,0,0,0,0,0,0,0,0,0,0,0,0,0,0,0,0,0,0,0,0,0,0,0,0,0,0,0,0,0,0,0,0,0,0,6.6435,6.6437,0,6.6608,6.661,6.6612,6.6565,6.6562,6.6558,6.6555,6.6733,6.6741,6.6749,0,0,0,0,0,0,0,0,0,0,0,0,0,6.6066,6.6073,6.6435,6.6437,6.6439,6.6608,6.661,6.6613,6.6566,6.6562,6.6557,6.6553,6.6731,6.674,6.675,0,0,0,0,0,0,0,0,0,0,0,0,0,6.6231,6.6075,6.6434,6.6436,6.6438,6.6607,6.661,6.6613,6.6567,6.6561,6.6556,6.6551,6.6728,6.6739,6.6751,6.693,0,0,6.6788,6.6793,0,0,0,0,0,0,0,0,6.6222,6.6245,6.6434,6.6436,6.6439,6.656,6.6546,6.6719,6.6568,6.6518,6.6555,6.6549,6.668,6.6695,6.6739,6.6938,6.6946,6.6789,6.6796,6.6801,6.6805,0,0,0,0,0,0,0,6.6211,6.6237,6.6503,6.6436,6.6439,6.6429,6.6447,6.6578,6.6626,6.6522,6.6519,6.654,6.668,6.6728,6.6743,6.6948,6.6788,6.6799,6.6806,6.6811,6.7306,6.7312,0,0,0,0,0,0,6.6197,6.6228,6.6498,6.6508,6.6315,6.644,6.646,6.6526,6.6624,6.6634,6.6544,6.6537,6.671,6.6729,6.6749,6.6967,6.6801,6.6812,6.6819,6.73,6.7307,6.7314,0,0,0,0,0,0,6.6189,6.6222,6.6491,6.6368,6.6401,6.6452,6.6527,6.6532,6.658,6.6641,6.665,6.6584,6.6707,6.6732,6.6886,6.6973,6.6818,6.6829,6.7293,6.7302,6.731,6.7403,0,0,0,0,0,0,6.6179,6.6219,6.6286,6.6369,6.6408,6.6624,6.6532,6.6539,6.6601,6.6593,6.6681,6.6691,6.6705,6.6868,6.6898,6.6986,6.6838,6.7285,6.7297,6.7308,6.7393,6.7414,6.7433,0,0,0,0,0,6.6166,6.6305,6.629,6.6323,6.6493,6.6629,6.6651,6.6664,6.6608,6.6677,6.6717,6.6688,6.6958,6.6884,6.6917,6.7011,6.728,6.7294,6.7307,6.7384,6.741,6.7432,0,0,0,0,0,0,6.623,6.6316,6.63,6.647,6.6543,6.6621,6.6708,6.6691,6.6781,6.677,6.6782,6.6803,6.696,6.7001,6.6917,6.7191,6.7111,6.7132,6.7158,6.7184,6.7204,6.7191,6.6848,0,0,0,0,0,6.6265,6.6367,6.6436,6.658,6.6617,6.6657,6.6716,6.672,6.6796,6.6826,6.6877,6.6952,6.7054,6.7121,6.7218,6.7398,6.7418,6.7479,6.7499,6.7515,6.7533,6.7634,6.7663,6.7358,6.7357,6.7357,0,0,6.6336,6.6395,6.6459,6.6594,6.6651,6.6758,6.6682,6.6798,6.6878,6.6844,6.6992,6.7033,6.7117,6.7286,6.7362,6.7324,6.7622,6.7532,6.7545,6.7554,6.7651,6.768,6.7706,6.7367,6.7365,6.7364,0,0,6.6521,6.6575,6.6702,6.6761,6.6848,6.6874,6.6905,6.6986,6.7012,6.7161,6.7139,6.7234,6.7409,6.7472,6.7526,6.7739,6.7716,6.777,6.7875,6.7973,6.7997,6.8019,6.8097,6.8124,6.7787,6.7788,6.7788,0,6.6599,6.6758,6.6769,6.6889,6.695,6.6924,6.7054,6.7111,6.7225,6.7269,6.7224,6.7446,6.7501,6.7685,6.7737,6.7781,6.7818,6.776,6.7993,6.8014,6.8035,6.8109,6.8138,6.7794,6.7793,6.7792,6.7792,0,6.6851,6.6963,6.7055,6.7167,6.7239,6.7362,6.7394,6.7465,6.7464,6.7495,6.7649,6.7714,6.7826,6.787,6.7869,6.8055,6.8029,6.7989,6.7909,6.807,6.814,6.8168,6.7802,6.78,6.7798,6.7797,0,0,6.708,6.7199,6.7233,6.7285,6.738,6.7467,6.7591,6.77,6.7763,6.7843,6.7948,6.8099,6.8063,6.8125,6.8132,6.8218,6.8385,6.8168,6.817,6.8207,6.8597,6.8628,6.8661,6.8371,6.8376,6.8381,6.8591,0,6.7275,6.7492,6.7508,6.7705,6.7809,6.7788,6.7896,6.7967,6.8,6.8095,6.8131,6.8239,6.8182,6.822,6.8305,6.8347,6.8464,6.8332,6.8471,6.8476,6.8451,6.8697,6.8729,6.8924,6.8618,6.8623,6.8626,0,6.7531,6.7621,6.7828,6.7912,6.7956,6.8053,6.8156,6.8246,6.8328,6.8346,6.8417,6.8412,6.8541,6.8457,6.8636,6.8546,6.8604,6.8634,6.8642,6.8656,6.8561,6.8719,6.8986,6.9016,6.8669,6.8666,6.8663,0,6.768,6.7852,6.8,6.8045,6.8145,6.8214,6.826,6.8336,6.8402,6.8492,6.8535,6.8639,6.8697,6.8778,6.8803,6.8739,6.8982,6.8899,6.9003,6.9002,6.9055,6.9052,6.9337,6.9091,6.909,6.909,6.9089,0,6.7897,6.8025,6.8068,6.8159,6.8303,6.832,6.8463,6.8504,6.8573,6.8672,6.866,6.8754,6.878,6.8879,6.8899,6.9046,6.9071,6.9091,6.9095,6.9093,6.9091,6.9132,6.9119,6.9097,6.9096,6.9094,6.9093,0,6.8088,6.8121,6.8281,6.8364,6.8388,6.8491,6.8562,6.8651,6.8683,6.8809,6.884,6.8891,6.9007,6.9039,6.9179,6.9192,6.9366,6.9356,6.9338,6.9339,6.9441,6.9432,6.9763,6.9808,6.9531,6.9534,6.9536,0,6.8224,6.8323,6.8417,6.8483,6.8531,6.8637,6.8705,6.8726,6.8797,6.8899,6.8976,6.9091,6.9184,6.9372,6.9422,6.9529,6.9523,6.9632,6.9539,6.9535,6.9527,6.9522,6.9533,6.965,6.9653,6.9655,6.9657,0,6.8464,6.8477,6.8574,6.8679,6.876,6.8844,6.8924,6.8979,6.9012,6.9093,6.9212,6.9284,6.9428,6.9543,6.9652,6.97,6.9686,6.9686,6.9716,6.9715,6.9702,6.9713,6.9388,6.9678,6.9676,6.9675,6.9674,6.9673,6.8633,6.8721,6.8802,6.8912,6.8975,6.9051,6.9138,6.9182,6.9282,6.94,6.9407,6.9537,6.9619,6.9764,6.9818,6.9921,6.9889,6.9932,6.9943,6.9954,6.9963,6.9685,6.9941,6.994,6.994,6.994,6.9939,0,6.8874,6.8925,6.9027,6.914,6.9227,6.9206,6.9294,6.9369,6.9483,6.9561,6.9653,6.9792,6.9904,6.9964,7.0076,7.0148,7.0144,7.0177,7.0172,7.0184,6.9985,6.9948,7.0178,7.0178,7.0178,7.0178,7.0178,7.0178,6.901,6.9158,6.918,6.9361,6.9411,6.9539,6.9591,6.9662,6.9724,6.988,6.9973,7.0011,7.0083,7.02,7.0303,7.0318,7.0361,7.0398,7.0409,7.0222,7.0197,7.0174,7.014,7.0406,7.0407,7.06,7.0602,7.0603]},{"header":{"parameterUnit":"m.s-1","parameterCategory":1,"la1":30.2991,"la2":30.254,"lo1":-89.0895,"lo2":-89.0444,"dy":0.0017,"dx":0.0017,"nx":28,"ny":28,"refTime":"2025-03-09T21:00:00:Z","depth":0,"parameterNumber":3,"parameterNumberName":"V-component_of_WINDS"},"data":[0,0,0,0,0,0,0,0,0,0,0,0,0,0,0,0,0,0,0,0,0,0,0,0,0,0,0,0,0,0,0,0,0,0,0,0,0,0,0,0,0,0,0,0,0,0,0,0,0,0,0,0,0,0,0,0,0,0,-5.0785,-5.0786,0,-5.0893,-5.0895,-5.0896,-5.0886,-5.0884,-5.0883,-5.0881,-5.0989,-5.0993,-5.0997,0,0,0,0,0,0,0,0,0,0,0,0,0,-5.0568,-5.0572,-5.0785,-5.0786,-5.0788,-5.0893,-5.0895,-5.0896,-5.0886,-5.0884,-5.0882,-5.088,-5.0987,-5.0992,-5.0998,0,0,0,0,0,0,0,0,0,0,0,0,0,-5.0668,-5.0573,-5.0785,-5.0796,-5.0798,-5.0893,-5.0895,-5.0897,-5.0887,-5.0884,-5.0882,-5.0879,-5.0985,-5.0992,-5.0998,-5.1089,0,0,-5.1019,-5.1021,0,0,0,0,0,0,0,0,-5.0662,-5.0675,-5.0793,-5.0795,-5.0798,-5.0874,-5.0857,-5.0961,-5.0887,-5.0853,-5.0881,-5.0878,-5.0952,-5.0961,-5.0987,-5.1094,-5.1098,-5.1019,-5.1023,-5.1026,-5.1028,0,0,0,0,0,0,0,-5.0655,-5.0671,-5.0828,-5.0794,-5.0797,-5.0794,-5.0806,-5.0877,-5.0915,-5.0856,-5.0855,-5.0868,-5.0953,-5.0981,-5.0989,-5.11,-5.1019,-5.1025,-5.1029,-5.1031,-5.1288,-5.1291,0,0,0,0,0,0,-5.0646,-5.0665,-5.0824,-5.0831,-5.0722,-5.08,-5.0813,-5.0852,-5.0914,-5.0921,-5.087,-5.0868,-5.0971,-5.0982,-5.0993,-5.1104,-5.1026,-5.1032,-5.1036,-5.1285,-5.1289,-5.1292,0,0,0,0,0,0,-5.0641,-5.066,-5.082,-5.0748,-5.0768,-5.0807,-5.085,-5.0855,-5.0883,-5.0925,-5.0932,-5.0892,-5.0969,-5.0984,-5.1066,-5.1108,-5.1035,-5.1041,-5.1282,-5.1286,-5.129,-5.1326,0,0,0,0,0,0,-5.0635,-5.0659,-5.0694,-5.0749,-5.0772,-5.0891,-5.0853,-5.0859,-5.0895,-5.0892,-5.0947,-5.0954,-5.0968,-5.1056,-5.1072,-5.1116,-5.1046,-5.1278,-5.1284,-5.1289,-5.1322,-5.1331,-5.134,0,0,0,0,0,-5.0627,-5.0698,-5.0695,-5.0715,-5.0817,-5.0894,-5.0907,-5.0923,-5.0898,-5.0934,-5.0961,-5.0952,-5.1101,-5.1064,-5.1083,-5.1129,-5.1276,-5.1282,-5.1289,-5.1318,-5.1329,-5.134,0,0,0,0,0,0,-5.0645,-5.0706,-5.0703,-5.0794,-5.0839,-5.0892,-5.0937,-5.0935,-5.0987,-5.0982,-5.0999,-5.1011,-5.1094,-5.1119,-5.1078,-5.122,-5.1185,-5.1195,-5.1201,-5.1212,-5.1221,-5.1213,-5.1052,0,0,0,0,0,-5.066,-5.0718,-5.0768,-5.0843,-5.0866,-5.0898,-5.0932,-5.0941,-5.0987,-5.1006,-5.1039,-5.1084,-5.1141,-5.1178,-5.1233,-5.1326,-5.1338,-5.1366,-5.1375,-5.1383,-5.1391,-5.1443,-5.1457,-5.1313,-5.1313,-5.1313,0,0,-5.069,-5.0731,-5.0766,-5.0848,-5.0884,-5.0943,-5.0914,-5.0978,-5.1022,-5.1015,-5.1095,-5.1122,-5.1173,-5.1261,-5.1301,-5.1285,-5.1434,-5.1391,-5.1396,-5.1401,-5.1451,-5.1465,-5.1477,-5.1317,-5.1317,-5.1316,0,0,-5.0777,-5.0813,-5.0881,-5.0918,-5.0974,-5.0995,-5.1011,-5.1065,-5.1083,-5.1164,-5.116,-5.1213,-5.131,-5.1347,-5.1379,-5.1482,-5.1476,-5.1499,-5.1546,-5.1597,-5.1609,-5.1619,-5.1656,-5.1669,-5.1508,-5.1508,-5.1508,0,-5.0808,-5.0898,-5.0916,-5.0981,-5.1017,-5.1016,-5.1085,-5.112,-5.1189,-5.1214,-5.1195,-5.1319,-5.1353,-5.1451,-5.1476,-5.1501,-5.1521,-5.1493,-5.1606,-5.1616,-5.1626,-5.1662,-5.1676,-5.151,-5.151,-5.151,-5.151,0,-5.0934,-5.0997,-5.1045,-5.1114,-5.1156,-5.1222,-5.125,-5.129,-5.1296,-5.1319,-5.1402,-5.1443,-5.1507,-5.1531,-5.1536,-5.163,-5.1618,-5.1602,-5.1567,-5.1642,-5.1676,-5.169,-5.1514,-5.1513,-5.1512,-5.1512,0,0,-5.1033,-5.1113,-5.113,-5.1163,-5.1225,-5.1273,-5.134,-5.1404,-5.1439,-5.1487,-5.1544,-5.1627,-5.1614,-5.165,-5.166,-5.1704,-5.1785,-5.1683,-5.1685,-5.1701,-5.1891,-5.1903,-5.1918,-5.1781,-5.1784,-5.1786,-5.1887,0,-5.1126,-5.1246,-5.1264,-5.1369,-5.1428,-5.1429,-5.1487,-5.1531,-5.1555,-5.1608,-5.1634,-5.1693,-5.1671,-5.1693,-5.1737,-5.1765,-5.1823,-5.1758,-5.1834,-5.1836,-5.1821,-5.1936,-5.1948,-5.2041,-5.19,-5.1903,-5.1904,0,-5.125,-5.1304,-5.1416,-5.1471,-5.1497,-5.1549,-5.161,-5.1661,-5.1711,-5.1725,-5.1767,-5.1772,-5.1841,-5.1804,-5.1899,-5.1855,-5.1887,-5.1906,-5.191,-5.1918,-5.1875,-5.1947,-5.2071,-5.2085,-5.1925,-5.1924,-5.1922,0,-5.1312,-5.1413,-5.1493,-5.152,-5.1587,-5.1624,-5.1653,-5.1702,-5.1739,-5.1792,-5.1817,-5.1877,-5.191,-5.1956,-5.1977,-5.1948,-5.2072,-5.2036,-5.2086,-5.2085,-5.2111,-5.2109,-5.2243,-5.2132,-5.2132,-5.2132,-5.2131,0,-5.1414,-5.1482,-5.1522,-5.1571,-5.1648,-5.1669,-5.1744,-5.1772,-5.1816,-5.187,-5.1874,-5.1925,-5.1949,-5.2004,-5.2021,-5.2099,-5.2113,-5.2126,-5.213,-5.2126,-5.2125,-5.2147,-5.2141,-5.2135,-5.2134,-5.2134,-5.2133,0,-5.1496,-5.1525,-5.1613,-5.167,-5.1686,-5.174,-5.1788,-5.1836,-5.186,-5.193,-5.1947,-5.1985,-5.205,-5.2075,-5.2154,-5.2165,-5.2255,-5.2253,-5.2238,-5.2239,-5.2288,-5.2283,-5.2441,-5.2463,-5.2337,-5.2338,-5.2339,0,-5.1559,-5.1612,-5.1675,-5.1713,-5.1744,-5.1804,-5.1844,-5.1867,-5.1907,-5.197,-5.201,-5.2076,-5.2129,-5.2233,-5.2266,-5.2327,-5.2327,-5.2378,-5.2336,-5.2331,-5.2328,-5.2325,-5.2331,-5.2386,-5.2387,-5.2388,-5.2389,0,-5.1668,-5.1681,-5.1738,-5.1801,-5.1848,-5.1898,-5.1947,-5.1977,-5.2008,-5.2053,-5.2121,-5.2162,-5.2244,-5.2309,-5.2372,-5.2401,-5.2401,-5.2402,-5.2417,-5.2414,-5.2403,-5.241,-5.226,-5.2398,-5.2397,-5.2397,-5.2396,-5.2396,-5.1743,-5.1791,-5.1844,-5.1907,-5.1947,-5.1993,-5.2042,-5.2073,-5.213,-5.2199,-5.2209,-5.2281,-5.2332,-5.2417,-5.2449,-5.2506,-5.2492,-5.2513,-5.2519,-5.2524,-5.2527,-5.2394,-5.2517,-5.2517,-5.2516,-5.2516,-5.2516,0,-5.1853,-5.1888,-5.1946,-5.2016,-5.2066,-5.2063,-5.2117,-5.2159,-5.2223,-5.2271,-5.2324,-5.2402,-5.2466,-5.2505,-5.2569,-5.2607,-5.2608,-5.2623,-5.262,-5.2627,-5.2535,-5.2517,-5.2621,-5.2621,-5.2621,-5.2621,-5.2621,-5.2621,-5.1916,-5.1997,-5.2016,-5.2117,-5.2151,-5.2223,-5.2254,-5.2297,-5.2336,-5.2423,-5.2476,-5.2502,-5.2547,-5.2615,-5.2673,-5.2683,-5.2706,-5.2722,-5.2731,-5.2644,-5.2634,-5.2623,-5.2606,-5.2727,-5.2727,-5.2818,-5.2819,-5.282]}]]